Location: Warszawa
(52.2500°N, 21.0000°E)
Time: 14:34:35
(UTC+02:00)

Vanguard 2 - Pass Details

Date: 12 February 2023
Orbit: 553 x 2927 km, 32.9° (Epoch: 27 March)

Event Time Altitude Azimuth Distance (km) Brightness Sun altitude
Rises 18:04:21 0° 201° (SSW) 4,067 11.6 -12.9°
Reaches altitude 10° 18:08:05 10° 182° (S) 3,498 11.0 -13.4°
Maximum altitude 18:13:29 17° 145° (SE) 3,506 10.6 -14.3°
Enters shadow 18:19:13 12° 116° (ESE) 4,418 10.9 -15.1°
Drops below altitude 10° 18:20:23 10° 112° (ESE) 4,666 - -15.3°
Sets 18:26:41 0° 96° (E) 6,137 - -16.3°
